FW9268 Weather Reports


Display with metric or nautical units.
time (UTC)temp
F
wind
direction
speed
MPH
gust
MPH
rain 1hr
in
rain 24hr
in
rain mn
in
humidity
%
barometer
mb
20260506073055 35 336 0.0 0.0 0.00 0.00 0.00 73 1013.6
20260506073046 35 0 0.0 0.0 0.00 0.00 0.00 72 1019.5
20260506071547 35 336 0.0 0.0 0.00 0.00 0.00 73 1013.5
20260506071541 35 0 0.0 0.0 0.00 0.00 0.00 73 1019.5
20260506061553 36 336 0.0 0.0 0.00 0.00 0.00 66 1013.5
20260506061537 36 0 0.0 0.0 0.00 0.00 0.00 66 1019.5
20260506044629 37 0 0.0 3.0 0.00 0.00 0.00 64 1019.1
20260506044539 37 336 0.0 3.0 0.00 0.00 0.00 64 1013.2
20260506043040 38 0 0.0 5.0 0.00 0.00 0.00 63 1019.1
20260506043038 38 336 0.0 5.0 0.00 0.00 0.00 63 1013.3
20260506041538 39 335 1.0 4.0 0.00 0.00 0.00 59 1019.1
20260506041533 39 335 1.0 3.0 0.00 0.00 0.00 59 1013.2
20260506040039 39 0 0.0 8.0 0.00 0.00 0.00 58 1019.1
20260506040028 39 336 0.0 8.0 0.00 0.00 0.00 58 1013.1
20260506034602 39 340 2.0 8.0 0.00 0.00 0.00 59 1018.9
20260506034528 39 340 1.0 8.0 0.00 0.00 0.00 59 1013.1
20260506033037 39 302 0.0 3.0 0.00 0.00 0.00 63 1018.9
20260506033027 39 302 0.0 3.0 0.00 0.00 0.00 64 1013.1
20260506031543 39 0 0.0 1.0 0.00 0.00 0.00 61 1018.8
20260506031536 39 302 0.0 0.0 0.00 0.00 0.00 63 1013.0
20260506030041 39 0 0.0 2.0 0.00 0.00 0.00 63 1018.8
20260506030029 39 302 0.0 2.0 0.00 0.00 0.00 64 1012.9
20260506024541 40 0 0.0 3.0 0.00 0.00 0.00 62 1018.5
20260506024538 40 302 0.0 3.0 0.00 0.00 0.00 63 1012.7
20260506023059 40 301 1.0 3.0 0.00 0.00 0.00 55 1018.3
20260506023022 40 301 0.0 3.0 0.00 0.00 0.00 55 1012.6
20260506021536 41 0 0.0 2.0 0.00 0.00 0.00 56 1018.1
20260506021521 41 301 0.0 1.0 0.00 0.00 0.00 56 1012.3
20260506020044 41 301 0.0 5.0 0.00 0.00 0.00 54 1018.0
20260506020020 41 301 0.0 5.0 0.00 0.00 0.00 54 1012.3
20260506014542 41 0 1.0 5.0 0.00 0.00 0.00 53 1018.0
20260506014522 41 289 0.0 5.0 0.00 0.00 0.00 54 1012.2
20260506013041 41 0 1.0 3.0 0.00 0.00 0.00 52 1017.8
20260506013017 41 288 0.0 3.0 0.00 0.00 0.00 52 1011.9
20260506011536 41 288 0.0 5.0 0.00 0.00 0.00 52 1017.6
20260506011515 41 288 0.0 5.0 0.00 0.00 0.00 52 1011.8
20260506010042 41 289 1.0 8.0 0.00 0.00 0.00 50 1017.4
20260506010014 41 289 2.0 5.0 0.00 0.00 0.00 51 1011.6
20260506004557 42 285 3.0 11.0 0.00 0.00 0.00 49 1017.4
20260506004514 42 285 4.0 11.0 0.00 0.00 0.00 49 1011.4
20260506003056 43 284 3.0 12.0 0.00 0.00 0.00 49 1017.2
20260506003014 43 247 4.0 11.0 0.00 0.00 0.00 49 1011.5
20260506001541 43 291 3.0 13.0 0.00 0.00 0.00 47 1017.3
20260506001513 43 292 3.0 13.0 0.00 0.00 0.00 48 1011.5
20260506000040 43 271 3.0 11.0 0.00 0.00 0.00 47 1017.4
20260506000012 43 270 4.0 11.0 0.00 0.00 0.00 49 1011.5
20260505234557 43 0 4.0 13.0 0.00 0.00 0.00 46 1017.4
20260505234512 43 288 4.0 13.0 0.00 0.00 0.00 46 1011.6
20260505233039 43 237 6.0 17.0 0.00 0.00 0.00 45 1017.4
20260505233011 43 271 7.0 17.0 0.00 0.00 0.00 45 1011.6
20260505231537 44 234 7.0 15.0 0.00 0.00 0.00 44 1017.2
20260505231511 44 300 7.0 15.0 0.00 0.00 0.00 44 1011.3
20260505230044 44 313 6.0 17.0 0.00 0.00 0.00 45 1017.2
20260505230010 44 309 4.0 13.0 0.00 0.00 0.00 45 1011.4
20260505224541 44 253 3.0 10.0 0.00 0.00 0.00 45 1017.3
20260505224509 44 249 4.0 9.0 0.00 0.00 0.00 46 1011.3
20260505223039 43 289 4.0 11.0 0.00 0.00 0.00 45 1017.2
20260505223008 43 284 4.0 11.0 0.00 0.00 0.00 46 1011.4
20260505221539 44 290 3.0 10.0 0.00 0.00 0.00 46 1017.2
20260505221507 44 327 3.0 10.0 0.00 0.00 0.00 45 1011.5
20260505220054 44 309 5.0 14.0 0.00 0.00 0.00 46 1017.3
20260505220005 44 321 4.0 14.0 0.00 0.00 0.00 47 1011.4
20260505214544 43 329 3.0 9.0 0.00 0.00 0.00 46 1017.3
20260505214505 43 332 3.0 9.0 0.00 0.00 0.00 47 1011.5
20260505213039 43 313 6.0 14.0 0.00 0.00 0.00 46 1017.3
20260505213008 43 312 6.0 14.0 0.00 0.00 0.00 46 1011.5
20260505211547 43 343 6.0 14.0 0.00 0.00 0.00 46 1017.4
20260505211505 43 264 6.0 14.0 0.00 0.00 0.00 46 1011.5
20260505210039 43 283 7.0 18.0 0.00 0.00 0.00 46 1017.4
20260505210001 43 269 7.0 18.0 0.00 0.00 0.00 45 1011.2
20260505204600 43 293 7.0 15.0 0.00 0.00 0.00 45 1011.3
20260505204539 43 271 7.0 21.0 0.00 0.00 0.00 45 1017.4
20260505203058 43 304 10.0 17.0 0.00 0.00 0.00 46 1011.2
20260505203043 43 256 9.0 17.0 0.00 0.00 0.00 45 1017.6
20260505201558 43 252 7.0 17.0 0.00 0.00 0.00 46 1011.1
20260505201542 43 292 8.0 17.0 0.00 0.00 0.00 45 1017.4
20260505200039 43 302 9.0 19.0 0.00 0.00 0.00 45 1017.5
20260505194556 43 246 7.0 15.0 0.00 0.00 0.00 46 1010.9
20260505194544 43 288 6.0 15.0 0.00 0.00 0.00 47 1017.3
20260505193051 43 254 5.0 15.0 0.00 0.00 0.00 48 1010.8
20260505193044 43 236 6.0 15.0 0.00 0.00 0.00 48 1017.2
20260505191550 43 319 6.0 18.0 0.00 0.00 0.00 49 1010.8
20260505190047 43 255 8.0 17.0 0.00 0.00 0.00 46 1010.5
20260505190040 44 270 6.0 18.0 0.00 0.00 0.00 45 1016.9
20260505184544 43 270 9.0 24.0 0.00 0.00 0.00 47 1010.5
20260505183053 43 311 7.0 17.0 0.00 0.00 0.00 47 1010.3
20260505183038 43 290 8.0 17.0 0.00 0.00 0.00 47 1016.6
20260505181540 42 273 8.0 21.0 0.00 0.00 0.00 48 1010.2
20260505181538 42 254 7.0 18.0 0.00 0.00 0.00 47 1016.6
20260505180047 43 297 9.0 24.0 0.00 0.00 0.00 46 1016.6
20260505180042 43 301 11.0 24.0 0.00 0.00 0.00 47 1010.0
20260505174544 43 336 7.0 17.0 0.00 0.00 0.00 45 1009.9
20260505173039 42 271 7.0 19.0 0.00 0.00 0.00 48 1016.1
20260505173033 42 281 6.0 16.0 0.00 0.00 0.00 48 1009.7
20260505171539 42 301 9.0 19.0 0.00 0.00 0.00 45 1016.2
20260505171533 42 267 9.0 16.0 0.00 0.00 0.00 45 1009.7
20260505170048 42 300 9.0 26.0 0.00 0.00 0.00 45 1016.3
20260505170034 42 344 11.0 25.0 0.00 0.00 0.00 46 1009.7
20260505164540 42 236 8.0 21.0 0.00 0.00 0.00 44 1016.1
20260505164534 42 227 8.0 21.0 0.00 0.00 0.00 45 1009.4
20260505163045 42 319 9.0 19.0 0.00 0.00 0.00 47 1016.0
20260505163031 42 319 9.0 17.0 0.00 0.00 0.00 47 1009.3
20260505161548 41 278 9.0 20.0 0.00 0.00 0.00 46 1015.9
20260505161529 41 290 9.0 20.0 0.00 0.00 0.00 47 1009.2
20260505153051 41 263 7.0 19.0 0.00 0.00 0.00 46 1015.5
20260505153024 41 263 5.0 19.0 0.00 0.00 0.00 46 1008.7
20260505151545 42 308 7.0 15.0 0.00 0.00 0.00 48 1015.5
20260505151521 42 308 7.0 15.0 0.00 0.00 0.00 49 1008.7
20260505124607 37 288 6.0 14.0 0.00 0.00 0.00 64 1007.5
20260505124542 37 262 5.0 15.0 0.00 0.00 0.00 65 1014.4
20260505123058 36 244 7.0 19.0 0.00 0.00 0.00 65 1014.3
20260505123056 36 295 6.0 19.0 0.00 0.00 0.00 66 1007.2
20260505121550 35 285 4.0 12.0 0.00 0.00 0.00 66 1007.2
20260505121536 35 258 2.0 11.0 0.00 0.00 0.00 66 1014.2
20260505120051 35 275 2.0 10.0 0.00 0.00 0.00 68 1007.0
20260505120042 35 275 3.0 10.0 0.00 0.00 0.00 67 1014.0
20260505114556 34 269 2.0 10.0 0.00 0.00 0.00 69 1013.8
20260505114550 34 266 2.0 10.0 0.00 0.00 0.00 70 1006.7
20260505113040 34 0 1.0 8.0 0.00 0.00 0.00 70 1013.6
20260505111554 33 277 1.0 11.0 0.00 0.00 0.00 70 1013.5
20260505111539 33 277 1.0 11.0 0.00 0.00 0.00 71 1006.2
20260505101541 34 267 1.0 7.0 0.00 0.00 0.00 69 1012.8
20260505100036 34 261 0.0 9.0 0.00 0.00 0.00 69 1012.6
20260505100027 34 261 0.0 9.0 0.00 0.00 0.00 69 1005.4
20260505094539 35 0 2.0 8.0 0.00 0.00 0.00 68 1012.7
20260505094534 35 261 2.0 8.0 0.00 0.00 0.00 69 1005.4
20260505093043 34 275 0.0 6.0 0.00 0.00 0.00 68 1012.3
20260505093024 34 275 1.0 6.0 0.00 0.00 0.00 68 1005.0
20260505091537 35 0 0.0 4.0 0.00 0.00 0.00 67 1012.0
20260505091522 35 292 0.0 4.0 0.00 0.00 0.00 67 1004.7
20260505090050 35 292 1.0 5.0 0.00 0.00 0.00 66 1011.9
20260505090021 35 292 1.0 5.0 0.00 0.00 0.00 66 1004.6
20260505084540 35 294 1.0 7.0 0.00 0.00 0.00 66 1011.7
20260505084517 35 294 2.0 7.0 0.00 0.00 0.00 66 1004.5
20260505083045 35 0 0.0 3.0 0.00 0.00 0.00 65 1011.5
20260505083021 35 294 0.0 3.0 0.00 0.00 0.00 65 1004.2
20260505081545 36 0 1.0 5.0 0.00 0.00 0.00 64 1011.4
20260505081515 36 296 1.0 5.0 0.00 0.00 0.00 65 1004.2
20260505080042 35 0 0.0 5.0 0.00 0.00 0.00 64 1011.6
20260505080016 35 297 0.0 3.0 0.00 0.00 0.00 65 1004.2
20260505074543 36 0 0.0 4.0 0.00 0.00 0.00 63 1011.6
20260505074512 36 284 0.0 4.0 0.00 0.00 0.00 64 1004.4